| time (UTC) | temp C | wind direction | speed KPH | gust KPH | rain 1hr cm | rain 24hr cm | rain mn cm | humidity % | barometer mb |
| 20260509032604 | 13 | 316 | 0.0 | 1.6 | 0.18 | 0.03 | 0.03 | 94 | 1007.1 |
| 20260509032101 | 13 | 338 | 0.0 | 1.6 | 0.00 | 0.00 | 0.00 | 94 | 1007.1 |
| 20260509031559 | 13 | 342 | 0.0 | 1.6 | 0.00 | 0.00 | 0.00 | 93 | 1006.9 |
| 20260509031056 | 13 | 340 | 0.0 | 0.0 | 0.00 | 0.00 | 0.00 | 93 | 1007.0 |
| 20260509030554 | 13 | 309 | 0.0 | 1.6 | 0.00 | 0.00 | 0.00 | 92 | 1006.9 |
| 20260509030051 | 13 | 333 | 0.0 | 0.0 | 0.00 | 0.00 | 0.00 | 92 | 1007.1 |
| 20260509025547 | 13 | 333 | 1.6 | 4.8 | 0.00 | 0.00 | 0.00 | 91 | 1007.3 |
| 20260509025042 | 13 | 287 | 0.0 | 0.0 | 0.00 | 0.00 | 0.00 | 91 | 1007.3 |
| 20260509024539 | 13 | 356 | 0.0 | 0.0 | 0.00 | 0.00 | 0.00 | 90 | 1007.2 |
| 20260509024035 | 13 | 337 | 0.0 | 1.6 | 0.00 | 0.00 | 0.00 | 90 | 1007.3 |
| 20260509023533 | 13 | 303 | 0.0 | 1.6 | 0.00 | 0.00 | 0.00 | 89 | 1007.3 |
| 20260509023029 | 13 | 353 | 1.6 | 3.2 | 0.00 | 0.00 | 0.00 | 89 | 1007.2 |
| 20260509022526 | 13 | 307 | 1.6 | 4.8 | 0.00 | 0.00 | 0.00 | 90 | 1007.2 |
| 20260509022024 | 13 | 338 | 1.6 | 3.2 | 0.00 | 0.00 | 0.00 | 90 | 1007.2 |
| 20260509021521 | 13 | 14 | 1.6 | 3.2 | 0.00 | 0.00 | 0.00 | 91 | 1007.2 |
| 20260509021017 | 13 | 314 | 3.2 | 8.0 | 0.00 | 0.00 | 0.00 | 92 | 1007.1 |
| 20260509020516 | 13 | 339 | 1.6 | 3.2 | 0.00 | 0.00 | 0.00 | 92 | 1006.9 |
| 20260509020012 | 13 | 8 | 0.0 | 0.0 | 0.00 | 0.00 | 0.00 | 91 | 1006.9 |
| 20260509015512 | 13 | 9 | 0.0 | 0.0 | 0.00 | 0.00 | 0.00 | 91 | 1006.5 |
| 20260509015008 | 13 | 6 | 0.0 | 0.0 | 0.00 | 0.00 | 0.00 | 91 | 1006.6 |
| 20260509014505 | 13 | 9 | 0.0 | 0.0 | 0.00 | 0.00 | 0.00 | 90 | 1006.6 |
| 20260509014001 | 14 | 10 | 0.0 | 0.0 | 0.00 | 0.00 | 0.00 | 90 | 1006.6 |
| 20260509013458 | 14 | 4 | 0.0 | 0.0 | 0.00 | 0.00 | 0.00 | 88 | 1006.8 |
| 20260509012953 | 14 | 9 | 0.0 | 0.0 | 0.00 | 0.00 | 0.00 | 87 | 1006.5 |
| 20260509012450 | 15 | 9 | 0.0 | 0.0 | 0.00 | 0.00 | 0.00 | 86 | 1006.5 |
| 20260509011947 | 15 | 342 | 1.6 | 1.6 | 0.00 | 0.00 | 0.00 | 85 | 1006.6 |
| 20260509011445 | 15 | 331 | 0.0 | 0.0 | 0.00 | 0.00 | 0.00 | 84 | 1006.5 |
| 20260509010942 | 15 | 329 | 1.6 | 1.6 | 0.00 | 0.00 | 0.00 | 83 | 1006.5 |
| 20260509010440 | 15 | 356 | 0.0 | 3.2 | 0.00 | 0.00 | 0.00 | 84 | 1006.5 |
| 20260509005937 | 15 | 255 | 0.0 | 0.0 | 0.00 | 0.00 | 0.00 | 86 | 1006.6 |
| 20260509005435 | 14 | 67 | 0.0 | 1.6 | 0.00 | 0.00 | 0.00 | 86 | 1006.3 |
| 20260509004934 | 14 | 299 | 0.0 | 0.0 | 0.00 | 0.00 | 0.00 | 90 | 1006.4 |
| 20260509004431 | 14 | 241 | 0.0 | 0.0 | 0.00 | 0.00 | 0.00 | 92 | 1006.3 |
| 20260509003929 | 14 | 359 | 0.0 | 4.8 | 0.00 | 0.00 | 0.00 | 92 | 1005.9 |
| 20260509003427 | 14 | 8 | 0.0 | 0.0 | 0.00 | 0.00 | 0.00 | 90 | 1005.9 |
| 20260509002923 | 15 | 334 | 0.0 | 0.0 | 0.00 | 0.00 | 0.00 | 88 | 1005.8 |
| 20260509002422 | 15 | 348 | 0.0 | 0.0 | 0.00 | 0.00 | 0.00 | 87 | 1005.9 |
| 20260509001918 | 15 | 348 | 0.0 | 0.0 | 0.00 | 0.00 | 0.00 | 87 | 1005.7 |
| 20260509001414 | 15 | 20 | 0.0 | 0.0 | 0.00 | 0.00 | 0.00 | 86 | 1005.5 |
| 20260509000912 | 15 | 16 | 0.0 | 0.0 | 0.00 | 0.00 | 0.00 | 86 | 1005.7 |
| 20260509000410 | 15 | 16 | 0.0 | 0.0 | 0.00 | 0.00 | 0.00 | 85 | 1005.8 |
| 20260508235905 | 16 | 6 | 0.0 | 0.0 | 0.00 | 0.00 | 0.00 | 85 | 1006.0 |
| 20260508235403 | 16 | 5 | 0.0 | 0.0 | 0.00 | 0.00 | 0.00 | 84 | 1006.1 |
| 20260508234900 | 16 | 9 | 0.0 | 0.0 | 0.00 | 0.00 | 0.00 | 84 | 1005.8 |
| 20260508234356 | 16 | 7 | 0.0 | 0.0 | 0.00 | 0.00 | 0.00 | 82 | 1005.7 |
| 20260508233855 | 16 | 7 | 0.0 | 0.0 | 0.00 | 0.00 | 0.00 | 82 | 1005.7 |
| 20260508233354 | 16 | 17 | 0.0 | 0.0 | 0.00 | 0.00 | 0.00 | 82 | 1005.7 |
| 20260508232850 | 16 | 18 | 0.0 | 0.0 | 0.00 | 0.00 | 0.00 | 82 | 1005.6 |
| 20260508232346 | 16 | 351 | 0.0 | 0.0 | 0.00 | 0.00 | 0.00 | 81 | 1005.5 |
| 20260508231845 | 16 | 337 | 0.0 | 0.0 | 0.00 | 0.00 | 0.00 | 81 | 1005.9 |
| 20260508231341 | 17 | 23 | 0.0 | 0.0 | 0.00 | 0.00 | 0.00 | 77 | 1006.0 |
| 20260508230838 | 17 | 358 | 0.0 | 0.0 | 0.00 | 0.00 | 0.00 | 71 | 1005.8 |
| 20260508230334 | 17 | 8 | 0.0 | 0.0 | 0.00 | 0.00 | 0.00 | 71 | 1005.7 |
| 20260508225832 | 17 | 33 | 0.0 | 0.0 | 0.00 | 0.00 | 0.00 | 73 | 1005.8 |
| 20260508225328 | 17 | 34 | 0.0 | 0.0 | 0.00 | 0.00 | 0.00 | 71 | 1005.6 |
| 20260508224827 | 18 | 23 | 0.0 | 0.0 | 0.00 | 0.00 | 0.00 | 67 | 1005.6 |
| 20260508224324 | 18 | 23 | 0.0 | 0.0 | 0.00 | 0.00 | 0.00 | 62 | 1005.9 |
| 20260508223821 | 18 | 26 | 0.0 | 1.6 | 0.00 | 0.00 | 0.00 | 61 | 1005.5 |
| 20260508223318 | 19 | 339 | 0.0 | 0.0 | 0.00 | 0.00 | 0.00 | 57 | 1005.4 |
| 20260508222816 | 19 | 353 | 0.0 | 0.0 | 0.00 | 0.00 | 0.00 | 53 | 1005.6 |
| 20260508222313 | 19 | 331 | 0.0 | 3.2 | 0.00 | 0.00 | 0.00 | 53 | 1005.7 |
| 20260508221809 | 20 | 323 | 1.6 | 3.2 | 0.00 | 0.00 | 0.00 | 52 | 1005.5 |
| 20260508221305 | 20 | 308 | 0.0 | 0.0 | 0.00 | 0.00 | 0.00 | 52 | 1005.6 |
| 20260508220801 | 20 | 241 | 0.0 | 3.2 | 0.00 | 0.00 | 0.00 | 51 | 1005.7 |
| 20260508220258 | 20 | 3 | 0.0 | 3.2 | 0.00 | 0.00 | 0.00 | 53 | 1005.7 |
| 20260508215754 | 20 | 246 | 0.0 | 0.0 | 0.00 | 0.00 | 0.00 | 51 | 1005.6 |
| 20260508215251 | 20 | 280 | 0.0 | 0.0 | 0.00 | 0.00 | 0.00 | 52 | 1005.7 |
| 20260508214749 | 20 | 215 | 1.6 | 3.2 | 0.00 | 0.00 | 0.00 | 52 | 1005.6 |
| 20260508214245 | 20 | 295 | 0.0 | 0.0 | 0.00 | 0.00 | 0.00 | 52 | 1005.6 |
| 20260508213742 | 20 | 183 | 0.0 | 0.0 | 0.00 | 0.00 | 0.00 | 50 | 1005.6 |
| 20260508213238 | 20 | 244 | 0.0 | 3.2 | 0.00 | 0.00 | 0.00 | 51 | 1005.5 |
| 20260508212729 | 20 | 256 | 0.0 | 4.8 | 0.00 | 0.00 | 0.00 | 50 | 1005.5 |
| 20260508212226 | 20 | 222 | 1.6 | 3.2 | 0.00 | 0.00 | 0.00 | 49 | 1005.7 |
| 20260508211721 | 20 | 354 | 0.0 | 3.2 | 0.00 | 0.00 | 0.00 | 49 | 1005.6 |
| 20260508211217 | 20 | 245 | 3.2 | 4.8 | 0.00 | 0.00 | 0.00 | 49 | 1005.5 |
| 20260508210715 | 20 | 180 | 1.6 | 8.0 | 0.00 | 0.00 | 0.00 | 48 | 1005.9 |
| 20260508210212 | 20 | 225 | 0.0 | 8.0 | 0.00 | 0.00 | 0.00 | 49 | 1005.7 |
| 20260508205709 | 20 | 239 | 4.8 | 11.3 | 0.00 | 0.00 | 0.00 | 48 | 1005.9 |
| 20260508205205 | 20 | 182 | 3.2 | 4.8 | 0.00 | 0.00 | 0.00 | 48 | 1005.7 |
| 20260508204701 | 20 | 354 | 0.0 | 11.3 | 0.00 | 0.00 | 0.00 | 48 | 1005.9 |
| 20260508204157 | 20 | 200 | 4.8 | 8.0 | 0.00 | 0.00 | 0.00 | 47 | 1005.9 |
| 20260508203654 | 20 | 221 | 4.8 | 9.7 | 0.00 | 0.00 | 0.00 | 48 | 1006.2 |
| 20260508203150 | 20 | 225 | 8.0 | 11.3 | 0.00 | 0.00 | 0.00 | 47 | 1006.3 |
| 20260508202646 | 20 | 217 | 0.0 | 4.8 | 0.00 | 0.00 | 0.00 | 49 | 1006.4 |
| 20260508202144 | 20 | 205 | 1.6 | 4.8 | 0.00 | 0.00 | 0.00 | 47 | 1006.5 |
| 20260508201640 | 20 | 302 | 0.0 | 14.5 | 0.00 | 0.00 | 0.00 | 49 | 1006.6 |
| 20260508201137 | 20 | 179 | 1.6 | 3.2 | 0.00 | 0.00 | 0.00 | 48 | 1006.6 |
| 20260508200634 | 20 | 215 | 0.0 | 1.6 | 0.00 | 0.00 | 0.00 | 47 | 1006.4 |
| 20260508200130 | 20 | 286 | 3.2 | 8.0 | 0.00 | 0.00 | 0.00 | 48 | 1006.7 |
| 20260508195627 | 20 | 227 | 3.2 | 4.8 | 0.00 | 0.00 | 0.00 | 47 | 1006.8 |
| 20260508195123 | 20 | 213 | 1.6 | 3.2 | 0.00 | 0.00 | 0.00 | 47 | 1006.8 |
| 20260508194620 | 20 | 222 | 3.2 | 8.0 | 0.00 | 0.00 | 0.00 | 47 | 1006.8 |
| 20260508194117 | 20 | 183 | 3.2 | 4.8 | 0.00 | 0.00 | 0.00 | 48 | 1007.0 |
| 20260508193614 | 20 | 283 | 3.2 | 8.0 | 0.00 | 0.00 | 0.00 | 47 | 1006.9 |
| 20260508193110 | 20 | 353 | 0.0 | 3.2 | 0.00 | 0.00 | 0.00 | 46 | 1006.9 |
| 20260508192607 | 20 | 123 | 0.0 | 3.2 | 0.00 | 0.00 | 0.00 | 46 | 1006.9 |
| 20260508192104 | 20 | 118 | 0.0 | 8.0 | 0.00 | 0.00 | 0.00 | 45 | 1006.9 |
| 20260508191601 | 20 | 222 | 4.8 | 9.7 | 0.00 | 0.00 | 0.00 | 45 | 1006.9 |
| 20260508191058 | 21 | 310 | 0.0 | 4.8 | 0.00 | 0.00 | 0.00 | 46 | 1007.1 |
| 20260508190555 | 21 | 189 | 0.0 | 16.1 | 0.00 | 0.00 | 0.00 | 47 | 1007.0 |
| 20260508190051 | 21 | 176 | 0.0 | 8.0 | 0.00 | 0.00 | 0.00 | 45 | 1007.0 |
| 20260508185549 | 21 | 194 | 8.0 | 11.3 | 0.00 | 0.00 | 0.00 | 46 | 1007.0 |
| 20260508185046 | 21 | 291 | 0.0 | 16.1 | 0.00 | 0.00 | 0.00 | 46 | 1007.1 |
| 20260508184543 | 21 | 100 | 1.6 | 9.7 | 0.00 | 0.00 | 0.00 | 46 | 1007.3 |
| 20260508184040 | 21 | 192 | 3.2 | 8.0 | 0.00 | 0.00 | 0.00 | 47 | 1007.4 |
| 20260508183536 | 21 | 204 | 0.0 | 8.0 | 0.00 | 0.00 | 0.00 | 47 | 1007.3 |
| 20260508183032 | 21 | 199 | 11.3 | 16.1 | 0.00 | 0.00 | 0.00 | 46 | 1007.7 |
| 20260508182529 | 21 | 246 | 3.2 | 20.9 | 0.00 | 0.00 | 0.00 | 48 | 1007.5 |
| 20260508182026 | 21 | 235 | 4.8 | 16.1 | 0.00 | 0.00 | 0.00 | 47 | 1007.9 |
| 20260508181521 | 21 | 304 | 1.6 | 9.7 | 0.00 | 0.00 | 0.00 | 48 | 1007.9 |
| 20260508181019 | 21 | 218 | 14.5 | 16.1 | 0.00 | 0.00 | 0.00 | 45 | 1007.9 |
| 20260508180515 | 20 | 220 | 6.4 | 17.7 | 0.00 | 0.00 | 0.00 | 46 | 1008.1 |
| 20260508180012 | 21 | 223 | 6.4 | 8.0 | 0.00 | 0.00 | 0.00 | 50 | 1008.2 |
| 20260508175508 | 21 | 258 | 0.0 | 3.2 | 0.00 | 0.00 | 0.00 | 51 | 1008.3 |
| 20260508175006 | 20 | 191 | 1.6 | 9.7 | 0.00 | 0.00 | 0.00 | 49 | 1008.5 |
| 20260508174503 | 20 | 201 | 4.8 | 22.5 | 0.00 | 0.00 | 0.00 | 49 | 1008.6 |
| 20260508174000 | 21 | 219 | 6.4 | 11.3 | 0.00 | 0.00 | 0.00 | 47 | 1008.6 |
| 20260508173457 | 21 | 152 | 1.6 | 11.3 | 0.00 | 0.00 | 0.00 | 48 | 1008.7 |
| 20260508172953 | 20 | 284 | 0.0 | 3.2 | 0.00 | 0.00 | 0.00 | 52 | 1008.6 |
| 20260508172450 | 20 | 190 | 4.8 | 11.3 | 0.00 | 0.00 | 0.00 | 50 | 1009.0 |
| 20260508171946 | 20 | 228 | 14.5 | 16.1 | 0.00 | 0.00 | 0.00 | 49 | 1009.0 |
| 20260508171443 | 20 | 214 | 1.6 | 9.7 | 0.00 | 0.00 | 0.00 | 51 | 1009.0 |
| 20260508170939 | 20 | 335 | 0.0 | 4.8 | 0.00 | 0.00 | 0.00 | 50 | 1009.2 |
| 20260508170437 | 20 | 210 | 8.0 | 16.1 | 0.00 | 0.00 | 0.00 | 49 | 1009.0 |
| 20260508165933 | 20 | 296 | 0.0 | 8.0 | 0.00 | 0.00 | 0.00 | 51 | 1009.1 |
| 20260508165432 | 20 | 210 | 11.3 | 20.9 | 0.00 | 0.00 | 0.00 | 48 | 1009.2 |
| 20260508164927 | 21 | 347 | 1.6 | 4.8 | 0.00 | 0.00 | 0.00 | 50 | 1009.3 |
| 20260508164424 | 20 | 311 | 0.0 | 11.3 | 0.00 | 0.00 | 0.00 | 50 | 1009.5 |
| 20260508163922 | 20 | 201 | 8.0 | 12.9 | 0.00 | 0.00 | 0.00 | 49 | 1009.4 |
| 20260508163419 | 20 | 302 | 0.0 | 11.3 | 0.00 | 0.00 | 0.00 | 50 | 1009.7 |
| 20260508162914 | 20 | 240 | 8.0 | 16.1 | 0.00 | 0.00 | 0.00 | 50 | 1009.8 |
| 20260508162412 | 20 | 185 | 4.8 | 16.1 | 0.00 | 0.00 | 0.00 | 50 | 1009.7 |
| 20260508161909 | 19 | 193 | 9.7 | 16.1 | 0.00 | 0.00 | 0.00 | 50 | 1010.0 |
| 20260508161406 | 20 | 185 | 14.5 | 22.5 | 0.00 | 0.00 | 0.00 | 49 | 1010.0 |
| 20260508160903 | 20 | 249 | 4.8 | 9.7 | 0.00 | 0.00 | 0.00 | 50 | 1010.0 |
| 20260508160403 | 20 | 219 | 9.7 | 14.5 | 0.00 | 0.00 | 0.00 | 51 | 1010.0 |
| 20260508155858 | 19 | 209 | 8.0 | 17.7 | 0.00 | 0.00 | 0.00 | 51 | 1009.9 |
| 20260508155355 | 18 | 238 | 1.6 | 9.7 | 0.00 | 0.00 | 0.00 | 51 | 1010.1 |
| 20260508154852 | 19 | 141 | 6.4 | 11.3 | 0.00 | 0.00 | 0.00 | 51 | 1010.2 |
| 20260508154350 | 18 | 203 | 9.7 | 17.7 | 0.00 | 0.00 | 0.00 | 51 | 1010.1 |
| 20260508153846 | 18 | 222 | 14.5 | 16.1 | 0.00 | 0.00 | 0.00 | 51 | 1010.4 |
| 20260508153343 | 18 | 134 | 0.0 | 14.5 | 0.00 | 0.00 | 0.00 | 53 | 1010.4 |
| 20260508152839 | 18 | 172 | 4.8 | 16.1 | 0.00 | 0.00 | 0.00 | 53 | 1010.4 |
| 20260508152336 | 18 | 234 | 11.3 | 12.9 | 0.00 | 0.00 | 0.00 | 54 | 1010.4 |
| 20260508151832 | 17 | 194 | 4.8 | 12.9 | 0.00 | 0.00 | 0.00 | 56 | 1010.4 |
| 20260508151330 | 17 | 182 | 6.4 | 17.7 | 0.00 | 0.00 | 0.00 | 56 | 1010.5 |
| 20260508150826 | 17 | 193 | 6.4 | 14.5 | 0.00 | 0.00 | 0.00 | 56 | 1010.5 |
| 20260508150322 | 17 | 192 | 8.0 | 16.1 | 0.00 | 0.00 | 0.00 | 56 | 1010.4 |
| 20260508145819 | 17 | 165 | 3.2 | 12.9 | 0.00 | 0.00 | 0.00 | 57 | 1010.3 |
| 20260508145315 | 17 | 215 | 9.7 | 12.9 | 0.00 | 0.00 | 0.00 | 56 | 1010.4 |
| 20260508144812 | 16 | 227 | 3.2 | 9.7 | 0.00 | 0.00 | 0.00 | 58 | 1010.7 |
| 20260508144310 | 17 | 222 | 6.4 | 17.7 | 0.00 | 0.00 | 0.00 | 58 | 1010.6 |
| 20260508143807 | 17 | 177 | 8.0 | 11.3 | 0.00 | 0.00 | 0.00 | 57 | 1010.6 |
| 20260508143304 | 16 | 188 | 0.0 | 11.3 | 0.00 | 0.00 | 0.00 | 57 | 1010.8 |
| 20260508142801 | 17 | 260 | 3.2 | 4.8 | 0.00 | 0.00 | 0.00 | 56 | 1010.6 |
| 20260508142257 | 16 | 199 | 4.8 | 4.8 | 0.00 | 0.00 | 0.00 | 57 | 1011.0 |
| 20260508141754 | 16 | 223 | 8.0 | 14.5 | 0.00 | 0.00 | 0.00 | 56 | 1011.0 |
| 20260508141251 | 16 | 226 | 0.0 | 4.8 | 0.00 | 0.00 | 0.00 | 58 | 1010.8 |
| 20260508140749 | 16 | 318 | 0.0 | 11.3 | 0.00 | 0.00 | 0.00 | 59 | 1011.1 |
| 20260508140245 | 15 | 170 | 4.8 | 9.7 | 0.00 | 0.00 | 0.00 | 59 | 1011.1 |
| 20260508135741 | 15 | 217 | 4.8 | 12.9 | 0.00 | 0.00 | 0.00 | 59 | 1011.0 |
| 20260508135237 | 15 | 240 | 8.0 | 11.3 | 0.00 | 0.00 | 0.00 | 59 | 1011.1 |
| 20260508134733 | 14 | 174 | 8.0 | 11.3 | 0.00 | 0.00 | 0.00 | 61 | 1011.1 |
| 20260508134231 | 14 | 194 | 8.0 | 9.7 | 0.00 | 0.00 | 0.00 | 61 | 1011.1 |
| 20260508133727 | 13 | 214 | 6.4 | 9.7 | 0.00 | 0.00 | 0.00 | 62 | 1011.1 |
| 20260508133225 | 13 | 193 | 1.6 | 3.2 | 0.00 | 0.00 | 0.00 | 63 | 1011.1 |
| 20260508132722 | 13 | 185 | 4.8 | 9.7 | 0.00 | 0.00 | 0.00 | 64 | 1011.0 |
| 20260508132220 | 12 | 218 | 4.8 | 8.0 | 0.00 | 0.00 | 0.00 | 66 | 1011.2 |
| 20260508131715 | 12 | 217 | 6.4 | 9.7 | 0.00 | 0.00 | 0.00 | 66 | 1011.1 |
| 20260508131212 | 12 | 181 | 4.8 | 9.7 | 0.00 | 0.00 | 0.00 | 68 | 1011.2 |
| 20260508130709 | 12 | 170 | 4.8 | 8.0 | 0.00 | 0.00 | 0.00 | 67 | 1011.3 |
| 20260508130206 | 12 | 244 | 4.8 | 4.8 | 0.00 | 0.00 | 0.00 | 68 | 1011.2 |
| 20260508125701 | 11 | 187 | 4.8 | 4.8 | 0.00 | 0.00 | 0.00 | 67 | 1011.2 |
| 20260508125158 | 12 | 170 | 4.8 | 8.0 | 0.00 | 0.00 | 0.00 | 67 | 1011.1 |
| 20260508124656 | 11 | 194 | 4.8 | 11.3 | 0.00 | 0.00 | 0.00 | 68 | 1011.2 |
| 20260508124153 | 11 | 190 | 0.0 | 8.0 | 0.00 | 0.00 | 0.00 | 69 | 1011.3 |
| 20260508123651 | 11 | 202 | 0.0 | 12.9 | 0.00 | 0.00 | 0.00 | 68 | 1011.0 |
| 20260508123149 | 11 | 184 | 4.8 | 9.7 | 0.00 | 0.00 | 0.00 | 68 | 1010.9 |
| 20260508122644 | 11 | 222 | 1.6 | 9.7 | 0.00 | 0.00 | 0.00 | 68 | 1011.1 |
| 20260508122141 | 11 | 210 | 3.2 | 8.0 | 0.00 | 0.00 | 0.00 | 69 | 1011.0 |
| 20260508121640 | 11 | 179 | 4.8 | 4.8 | 0.00 | 0.00 | 0.00 | 70 | 1011.0 |
| 20260508121138 | 10 | 206 | 3.2 | 4.8 | 0.00 | 0.00 | 0.00 | 71 | 1011.2 |
| 20260508120635 | 10 | 169 | 1.6 | 4.8 | 0.00 | 0.00 | 0.00 | 72 | 1011.0 |
| 20260508120133 | 10 | 168 | 3.2 | 8.0 | 0.00 | 0.00 | 0.00 | 73 | 1011.1 |
| 20260508115630 | 10 | 172 | 3.2 | 3.2 | 0.00 | 0.00 | 0.00 | 73 | 1011.2 |
| 20260508115127 | 10 | 173 | 3.2 | 4.8 | 0.00 | 0.00 | 0.00 | 75 | 1011.0 |
| 20260508114624 | 10 | 188 | 4.8 | 8.0 | 0.00 | 0.00 | 0.00 | 75 | 1011.0 |
| 20260508114120 | 9 | 202 | 3.2 | 4.8 | 0.00 | 0.00 | 0.00 | 76 | 1010.9 |
| 20260508113617 | 9 | 166 | 6.4 | 8.0 | 0.00 | 0.00 | 0.00 | 76 | 1010.9 |
| 20260508113116 | 9 | 208 | 4.8 | 8.0 | 0.00 | 0.00 | 0.00 | 75 | 1010.7 |
| 20260508112611 | 9 | 149 | 3.2 | 3.2 | 0.00 | 0.00 | 0.00 | 76 | 1010.8 |
| 20260508112108 | 9 | 220 | 4.8 | 4.8 | 0.00 | 0.00 | 0.00 | 76 | 1010.6 |
| 20260508111605 | 9 | 199 | 4.8 | 4.8 | 0.00 | 0.00 | 0.00 | 76 | 1010.6 |
| 20260508111102 | 8 | 172 | 3.2 | 8.0 | 0.00 | 0.00 | 0.00 | 76 | 1010.7 |
| 20260508110601 | 8 | 209 | 3.2 | 4.8 | 0.00 | 0.00 | 0.00 | 77 | 1010.4 |
| 20260508110056 | 8 | 194 | 3.2 | 3.2 | 0.00 | 0.00 | 0.00 | 77 | 1010.4 |
| 20260508105551 | 8 | 172 | 4.8 | 4.8 | 0.00 | 0.00 | 0.00 | 77 | 1010.5 |
| 20260508105049 | 8 | 164 | 3.2 | 4.8 | 0.00 | 0.00 | 0.00 | 77 | 1010.2 |
| 20260508104546 | 8 | 186 | 1.6 | 3.2 | 0.00 | 0.00 | 0.00 | 78 | 1010.5 |
| 20260508104042 | 8 | 202 | 4.8 | 4.8 | 0.00 | 0.00 | 0.00 | 78 | 1010.7 |
| 20260508103540 | 8 | 224 | 1.6 | 3.2 | 0.00 | 0.00 | 0.00 | 78 | 1010.4 |
| 20260508103037 | 8 | 155 | 1.6 | 4.8 | 0.00 | 0.00 | 0.00 | 78 | 1010.5 |
| 20260508102534 | 8 | 188 | 1.6 | 3.2 | 0.00 | 0.00 | 0.00 | 78 | 1010.5 |
| 20260508102032 | 8 | 153 | 1.6 | 3.2 | 0.00 | 0.00 | 0.00 | 78 | 1010.3 |
| 20260508101529 | 8 | 179 | 1.6 | 3.2 | 0.00 | 0.00 | 0.00 | 78 | 1010.4 |
| 20260508101026 | 8 | 242 | 0.0 | 1.6 | 0.00 | 0.00 | 0.00 | 78 | 1010.6 |
| 20260508100525 | 8 | 200 | 1.6 | 4.8 | 0.00 | 0.00 | 0.00 | 78 | 1010.5 |
| 20260508100021 | 8 | 195 | 1.6 | 1.6 | 0.00 | 0.00 | 0.00 | 78 | 1010.5 |
| 20260508095518 | 8 | 216 | 0.0 | 1.6 | 0.00 | 0.00 | 0.00 | 78 | 1010.5 |
| 20260508095015 | 8 | 161 | 0.0 | 3.2 | 0.00 | 0.00 | 0.00 | 79 | 1010.4 |
| 20260508094512 | 8 | 208 | 1.6 | 3.2 | 0.00 | 0.00 | 0.00 | 80 | 1010.4 |
| 20260508094009 | 8 | 134 | 0.0 | 0.0 | 0.00 | 0.00 | 0.00 | 81 | 1010.5 |
| 20260508093506 | 8 | 159 | 0.0 | 0.0 | 0.00 | 0.00 | 0.00 | 81 | 1010.5 |
| 20260508093004 | 8 | 106 | 0.0 | 0.0 | 0.00 | 0.00 | 0.00 | 81 | 1010.6 |
| 20260508092501 | 8 | 87 | 0.0 | 0.0 | 0.00 | 0.00 | 0.00 | 81 | 1010.4 |
| 20260508092000 | 8 | 112 | 0.0 | 0.0 | 0.00 | 0.00 | 0.00 | 80 | 1010.5 |
| 20260508091456 | 8 | 69 | 0.0 | 0.0 | 0.00 | 0.00 | 0.00 | 81 | 1010.5 |
| 20260508090953 | 7 | 44 | 0.0 | 0.0 | 0.00 | 0.00 | 0.00 | 82 | 1010.6 |
| 20260508090452 | 7 | 107 | 0.0 | 1.6 | 0.00 | 0.00 | 0.00 | 82 | 1010.6 |
| 20260508085947 | 7 | 134 | 0.0 | 1.6 | 0.00 | 0.00 | 0.00 | 83 | 1010.8 |
| 20260508085444 | 7 | 132 | 0.0 | 0.0 | 0.00 | 0.00 | 0.00 | 84 | 1010.7 |
| 20260508084941 | 7 | 31 | 0.0 | 0.0 | 0.00 | 0.00 | 0.00 | 85 | 1010.7 |
| 20260508084438 | 7 | 14 | 0.0 | 0.0 | 0.00 | 0.00 | 0.00 | 84 | 1010.7 |
| 20260508083936 | 7 | 15 | 0.0 | 0.0 | 0.00 | 0.00 | 0.00 | 84 | 1010.8 |
| 20260508083433 | 7 | 14 | 0.0 | 0.0 | 0.00 | 0.00 | 0.00 | 84 | 1010.5 |
| 20260508082933 | 7 | 16 | 1.6 | 1.6 | 0.00 | 0.00 | 0.00 | 83 | 1010.7 |
| 20260508082430 | 7 | 8 | 0.0 | 0.0 | 0.00 | 0.00 | 0.00 | 80 | 1010.6 |
| 20260508081928 | 7 | 8 | 0.0 | 0.0 | 0.00 | 0.00 | 0.00 | 80 | 1010.6 |
| 20260508081425 | 7 | 356 | 0.0 | 0.0 | 0.00 | 0.00 | 0.00 | 80 | 1010.5 |
| 20260508080921 | 7 | 295 | 0.0 | 0.0 | 0.00 | 0.00 | 0.00 | 80 | 1010.7 |
| 20260508080419 | 7 | 28 | 0.0 | 0.0 | 0.00 | 0.00 | 0.00 | 79 | 1010.4 |
| 20260508075915 | 8 | 219 | 3.2 | 4.8 | 0.00 | 0.00 | 0.00 | 79 | 1010.5 |
| 20260508075413 | 8 | 293 | 0.0 | 1.6 | 0.00 | 0.00 | 0.00 | 79 | 1010.3 |
| 20260508074911 | 8 | 178 | 1.6 | 3.2 | 0.00 | 0.00 | 0.00 | 79 | 1010.2 |
| 20260508074408 | 8 | 156 | 0.0 | 1.6 | 0.00 | 0.00 | 0.00 | 79 | 1010.5 |
| 20260508073904 | 8 | 183 | 0.0 | 1.6 | 0.00 | 0.00 | 0.00 | 78 | 1010.4 |
| 20260508073402 | 8 | 196 | 1.6 | 3.2 | 0.00 | 0.00 | 0.00 | 78 | 1010.4 |
| 20260508072858 | 8 | 199 | 0.0 | 3.2 | 0.00 | 0.00 | 0.00 | 78 | 1010.4 |
| 20260508072355 | 8 | 189 | 0.0 | 1.6 | 0.00 | 0.00 | 0.00 | 79 | 1010.4 |
| 20260508071852 | 8 | 171 | 1.6 | 3.2 | 0.00 | 0.00 | 0.00 | 79 | 1010.5 |
| 20260508071351 | 8 | 186 | 0.0 | 1.6 | 0.00 | 0.00 | 0.00 | 79 | 1010.3 |
| 20260508070848 | 8 | 171 | 1.6 | 3.2 | 0.00 | 0.00 | 0.00 | 79 | 1010.5 |
| 20260508070346 | 7 | 157 | 0.0 | 1.6 | 0.00 | 0.00 | 0.00 | 79 | 1010.7 |
| 20260508065843 | 8 | 98 | 0.0 | 0.0 | 0.00 | 0.00 | 0.00 | 79 | 1010.7 |
| 20260508065341 | 8 | 228 | 1.6 | 1.6 | 0.00 | 0.00 | 0.00 | 79 | 1010.8 |
| 20260508064839 | 8 | 282 | 0.0 | 3.2 | 0.00 | 0.00 | 0.00 | 78 | 1010.8 |
| 20260508064336 | 8 | 93 | 0.0 | 3.2 | 0.00 | 0.00 | 0.00 | 78 | 1010.8 |
| 20260508063834 | 8 | 138 | 0.0 | 3.2 | 0.00 | 0.00 | 0.00 | 78 | 1010.6 |
| 20260508063331 | 8 | 126 | 1.6 | 3.2 | 0.00 | 0.00 | 0.00 | 78 | 1011.0 |
| 20260508062828 | 8 | 159 | 1.6 | 4.8 | 0.00 | 0.00 | 0.00 | 78 | 1011.0 |
| 20260508062326 | 8 | 122 | 0.0 | 1.6 | 0.00 | 0.00 | 0.00 | 78 | 1011.3 |
| 20260508061823 | 8 | 131 | 0.0 | 3.2 | 0.00 | 0.00 | 0.00 | 78 | 1011.1 |
| 20260508061320 | 8 | 121 | 0.0 | 0.0 | 0.00 | 0.00 | 0.00 | 78 | 1011.1 |
| 20260508060816 | 8 | 125 | 0.0 | 1.6 | 0.00 | 0.00 | 0.00 | 78 | 1011.1 |
| 20260508060314 | 8 | 143 | 0.0 | 0.0 | 0.00 | 0.00 | 0.00 | 78 | 1011.2 |
| 20260508055809 | 7 | 85 | 0.0 | 0.0 | 0.00 | 0.00 | 0.00 | 79 | 1011.4 |
| 20260508055307 | 7 | 85 | 0.0 | 0.0 | 0.00 | 0.00 | 0.00 | 79 | 1011.1 |
| 20260508054803 | 7 | 123 | 0.0 | 0.0 | 0.00 | 0.00 | 0.00 | 80 | 1011.1 |
| 20260508054301 | 7 | 47 | 0.0 | 0.0 | 0.00 | 0.00 | 0.00 | 81 | 1011.3 |
| 20260508053757 | 7 | 42 | 0.0 | 0.0 | 0.00 | 0.00 | 0.00 | 83 | 1011.2 |
| 20260508053255 | 7 | 27 | 0.0 | 0.0 | 0.00 | 0.00 | 0.00 | 82 | 1011.4 |
| 20260508052752 | 7 | 46 | 0.0 | 0.0 | 0.00 | 0.00 | 0.00 | 82 | 1011.2 |
| 20260508052249 | 7 | 54 | 0.0 | 0.0 | 0.00 | 0.00 | 0.00 | 81 | 1011.3 |
| 20260508051745 | 7 | 88 | 0.0 | 0.0 | 0.00 | 0.00 | 0.00 | 81 | 1011.2 |
| 20260508051240 | 7 | 37 | 0.0 | 0.0 | 0.00 | 0.00 | 0.00 | 80 | 1011.3 |
| 20260508050737 | 8 | 74 | 0.0 | 0.0 | 0.00 | 0.00 | 0.00 | 79 | 1011.2 |
| 20260508050235 | 8 | 82 | 0.0 | 0.0 | 0.00 | 0.00 | 0.00 | 79 | 1011.2 |
| 20260508045730 | 8 | 48 | 0.0 | 0.0 | 0.00 | 0.00 | 0.00 | 79 | 1011.2 |
| 20260508045228 | 7 | 100 | 0.0 | 0.0 | 0.00 | 0.00 | 0.00 | 80 | 1011.0 |
| 20260508044725 | 7 | 42 | 0.0 | 0.0 | 0.00 | 0.00 | 0.00 | 82 | 1011.1 |
| 20260508044222 | 7 | 39 | 0.0 | 0.0 | 0.00 | 0.00 | 0.00 | 81 | 1011.1 |
| 20260508043718 | 8 | 40 | 0.0 | 0.0 | 0.00 | 0.00 | 0.00 | 79 | 1011.2 |
| 20260508043216 | 8 | 55 | 0.0 | 0.0 | 0.00 | 0.00 | 0.00 | 78 | 1010.9 |
| 20260508042712 | 8 | 107 | 0.0 | 0.0 | 0.00 | 0.00 | 0.00 | 78 | 1011.1 |
| 20260508042210 | 8 | 93 | 0.0 | 0.0 | 0.00 | 0.00 | 0.00 | 78 | 1011.0 |
| 20260508041706 | 8 | 82 | 0.0 | 0.0 | 0.00 | 0.00 | 0.00 | 78 | 1011.0 |
| 20260508041203 | 8 | 88 | 0.0 | 0.0 | 0.00 | 0.00 | 0.00 | 77 | 1011.0 |
| 20260508040659 | 8 | 91 | 0.0 | 0.0 | 0.00 | 0.00 | 0.00 | 78 | 1011.1 |
| 20260508040157 | 8 | 32 | 0.0 | 0.0 | 0.00 | 0.00 | 0.00 | 77 | 1011.0 |
| 20260508035654 | 8 | 31 | 0.0 | 0.0 | 0.00 | 0.00 | 0.00 | 76 | 1011.0 |
| 20260508035151 | 8 | 31 | 0.0 | 0.0 | 0.00 | 0.00 | 0.00 | 75 | 1010.8 |
| 20260508034648 | 9 | 52 | 0.0 | 0.0 | 0.00 | 0.00 | 0.00 | 73 | 1010.8 |
| 20260508034145 | 9 | 103 | 0.0 | 0.0 | 0.00 | 0.00 | 0.00 | 72 | 1010.8 |
| 20260508033642 | 9 | 81 | 0.0 | 0.0 | 0.00 | 0.00 | 0.00 | 71 | 1010.8 |
| 20260508033141 | 10 | 105 | 0.0 | 0.0 | 0.00 | 0.00 | 0.00 | 70 | 1011.0 |